User: anonymous   Login
Location: Caltech
(34.1382°N, 118.1253°W)
Time: 08:51:45
(UTC-08:00)
Language:

UOSAT-12 - Orbit

View from above orbital plane
View from above orbital plane
View from above satellite
View from above satellite

Ground track
Ground track

The orbit data is extracted from the following two-line orbital elements,

1 25693U 99021A   16039.53754936  .00000296  00000-0  57007-4 0  9997
2 25693  64.5546 210.0408 0020932 214.1122 210.1545 14.80603518906932
Epoch (UTC): 08 February 2016 12:54:04
Eccentricity: 0.0020932
inclination: 64.5546°
perigee height: 613 km
apogee height: 642 km
right ascension of ascending node: 210.0408°
argument of perigee: 214.1122°
revolutions per day: 14.80603518
mean anomaly at epoch: 210.1545°
orbit number at epoch: 90693

The dashed part of the orbit path shows where the satellite is in the earth's shadow,  

DLR